Location: Zagreb
(45.8000°N, 16.0000°E)
Time: 15:24:07
(UTC+01:00)

CAS-4B - Pass Details

Date: 01 November 2020
Orbit: 529 x 544 km, 43.0° (Epoch: 28 November)

Event Time Altitude Azimuth Distance (km) Brightness Sun altitude
Exits shadow 03:21:18 12° 106° (ESE) 1,645 ? -34.3°
Drops below altitude 10° 03:21:39 10° 105° (ESE) 1,777 ? -34.2°
Sets 03:23:54 0° 101° (E) 2,664 ? -33.8°
